Preview of NWS' New Version of Forecast
This preview is not operational and should not be used for support decisions.

Regional Weather Roundup (RWR)

Issued by National Weather Service (NWS)

                            
000
ASUS45 KCYS 211710
RWRWY 

WYOMING REGIONAL WEATHER ROUNDUP
NATIONAL WEATHER SERVICE CHEYENNE WY
1100 AM MDT SUN APR 21 2019

NOTE:  "FAIR" INDICATES FEW OR NO CLOUDS BELOW 12,000 FEET
WITH NO SIGNIFICANT WEATHER AND/OR OBSTRUCTIONS TO VISIBILITY.

WYZ001-211800-
...YELLOWSTONE NATIONAL PARK...
  
CITY           SKY/WX    TMP DP  RH WIND       PRES   REMARKS
LK YELLOWSTONE   N/A     38  34  85 CALM      30.00R                  
W YELLOWSTONE  NOT AVBL                                               

$$
WYZ002>013-054>058-071-098>099-211800-
...NORTHERN WYOMING...
  
CITY           SKY/WX    TMP DP  RH WIND       PRES   REMARKS
JACKSON        CLOUDY    42  37  82 NE9       29.93R                  
CODY           LGT RAIN  40  35  83 NW17      30.06R WCI  31          
GREYBULL       LGT RAIN  46  42  86 NW16      29.95R FOG              
WORLAND        CLOUDY    49  39  68 NW18      29.96R                  
SHERIDAN       LGT RAIN  45  42  89 N12       30.06R FOG              
BUFFALO        LGT RAIN  43  41  93 N21G31    30.01R FOG              
GILLETTE       CLOUDY    44  43  96 N21       29.97R                  
HULETT         CLOUDY    45  43  93 NE7       29.99R                  
NEWCASTLE      CLOUDY    48  43  81 S7        29.93R                  

$$
WYZ014>020-022>026-101>103-211800-
...CENTRAL WYOMING...
  
CITY           SKY/WX    TMP DP  RH WIND       PRES   REMARKS
BIG PINEY      LGT RAIN  43  40  89 S8        29.94R                  
PINEDALE       RAIN      43  39  87 S3        29.95R                  
DUBOIS         DRIZZLE   37  36  93 E7        29.95R WCI  32          
LANDER         LGT RAIN  45  42  89 N5        29.94R                  
RIVERTON       LGT RAIN  44  42  93 N15G23    29.95R FOG              
CASPER         CLOUDY    43  43 100 N21       29.96R                  
DOUGLAS        CLOUDY    48  46  93 NW8       29.95R                  

$$
WYZ021-027>030-104>119-211800-
...SOUTHERN WYOMING...
  
CITY           SKY/WX    TMP DP  RH WIND       PRES   REMARKS
EVANSTON       CLOUDY    49  36  61 CALM      29.92R                  
KEMMERER       CLOUDY    45  36  70 CALM      29.95R                  
FORT BRIDGER   CLOUDY    50  37  62 SE10      29.95R                  
ROCK SPRINGS   CLOUDY    53  34  48 VRB5      29.93S                  
DIXON          FAIR      54  32  43 S14       29.97S                  
RAWLINS        CLOUDY    54  32  43 NE7       29.92R                  
SARATOGA       PTSUNNY   59  28  31 W14       29.93R                  
LARAMIE        MOSUNNY   58  30  34 N10G18    29.90S                  
CHEYENNE       PTSUNNY   54  38  54 NE16G29   29.88R                  
TORRINGTON     LGT RAIN  49  47  93 N14       29.88R                  
PINE BLUFFS    LGT RAIN  52  45  76 NW15      29.88R                  

$$